Vorticity
2 7 15 26 30 21 7 -8 -9 -8 -7 -7 -9 -7 -1 9 13 11 4 -3 -2 -1 -2 -6 -14 -26 -36 -38 -10 16 30 24 15 11 12 16 20 21 19 18 7 -1 -5 -2 1 3 5 8 10 11 11 11 9 8 9 10 14 16 17 14 11 9 7 6 5 4 4 4 4
1 3 9 19 28 33 29 14 -2 -9 -8 -4 -6 -11 -13 -8 6 13 12 2 -4 -5 -3 -2 -5 -15 -30 -48 -42 -21 4 21 19 11 3 1 5 7 9 14 13 7 3 2 5 8 11 12 10 9 8 7 7 9 12 17 20 18 14 9 7 6 5 4 4 4 4 4 4
3 8 15 21 23 29 34 36 17 1 -7 -3 -2 -9 -17 -22 -10 3 11 9 -1 -5 -5 -1 1 -3 -14 -32 -45 -43 -30 -10 4 7 3 -5 -2 4 12 20 22 19 13 8 10 11 12 10 7 6 5 6 10 15 19 22 20 14 9 6 5 4 3 3 3 3 3 2 2
11 16 22 29 33 34 36 44 35 19 4 -1 1 -3 -10 -16 -12 -4 5 9 4 0 -2 -1 2 2 -3 -14 -28 -35 -35 -28 -12 -0 4 -2 -0 9 20 27 28 25 21 15 12 10 9 6 5 5 6 9 15 19 20 18 13 8 4 4 4 3 3 3 3 2 1 0 0
31 30 29 29 31 29 31 42 48 38 22 9 6 3 1 3 9 11 11 9 7 3 1 -0 1 2 0 -5 -15 -21 -26 -29 -20 -8 2 2 3 12 23 30 24 18 13 12 10 8 5 4 3 5 9 15 19 18 14 10 6 4 3 3 2 3 3 3 2 1 0 -1 -1
43 42 37 28 17 11 14 28 48 50 40 21 7 -3 -5 7 26 35 35 26 17 10 5 2 1 2 1 -0 -6 -13 -20 -25 -22 -12 1 9 11 15 21 25 22 21 19 15 8 4 3 2 4 9 16 21 19 14 8 4 3 3 3 2 2 2 3 3 2 1 0 -0 -0
19 22 25 26 20 15 14 19 38 47 44 26 1 -16 -19 -3 26 43 49 45 36 28 21 17 17 16 15 12 5 -3 -13 -21 -19 -10 5 20 23 19 13 15 20 23 21 9 4 1 1 3 10 17 21 21 15 8 4 1 2 2 2 1 1 2 2 2 2 2 1 0 0
3 8 13 18 22 23 23 23 32 40 42 33 11 -3 -5 10 27 36 40 41 39 38 38 40 42 42 40 36 26 14 2 -9 -6 4 17 33 29 18 9 8 17 19 14 2 -0 1 4 11 18 20 19 14 8 4 1 1 1 1 1 1 2 2 2 2 2 2 1 1 0
18 25 30 28 25 24 25 30 36 42 46 45 32 23 19 23 26 26 25 24 25 28 32 36 41 46 49 49 42 32 22 14 17 24 31 36 25 17 11 9 16 14 7 -3 -2 3 10 17 19 16 11 5 2 1 1 1 1 1 1 2 3 2 2 2 2 1 1 -0 -0
29 34 39 39 34 29 27 31 36 37 36 31 28 30 33 33 26 21 17 16 17 17 17 18 24 31 38 44 43 40 36 34 35 35 33 27 20 17 14 11 13 9 2 -4 0 7 14 17 14 9 4 1 0 1 1 1 1 2 2 2 2 2 2 1 1 -0 -1 -1 -1
13 15 19 26 29 30 29 30 29 23 16 9 19 33 44 46 33 23 16 14 12 10 8 9 15 22 29 38 44 46 43 38 35 28 21 15 15 13 11 10 10 6 2 -1 4 10 14 13 9 5 2 0 0 1 1 1 2 2 3 3 2 1 1 0 -0 -1 -2 -2 -2
-0 -2 0 6 16 24 28 27 21 11 3 1 9 22 36 47 39 28 17 8 4 3 4 4 4 6 12 21 38 52 57 46 27 12 4 1 -1 -2 -1 6 8 6 5 7 12 14 13 10 6 3 1 1 1 1 1 2 3 3 3 3 1 -0 -1 -1 -2 -2 -2 -2 -2
-2 -3 -3 -2 2 7 11 13 7 2 0 2 4 10 20 32 34 26 14 1 -1 2 6 4 -1 -2 -2 2 15 34 49 50 27 9 -3 -9 -14 -13 -7 6 11 12 12 12 14 15 14 11 5 2 0 1 1 1 2 3 3 3 3 3 0 -2 -3 -3 -2 -2 -2 -2 -1
3 2 2 2 1 1 2 2 2 3 3 4 4 6 11 18 21 17 9 -1 0 4 8 8 3 -1 -3 -2 1 8 18 28 23 16 7 -0 -5 -4 3 13 19 20 16 6 3 8 14 12 5 1 -1 0 1 2 2 3 3 4 5 3 -0 -3 -4 -3 -2 -2 -2 -2 -1
3 4 4 3 3 2 2 3 4 5 5 4 3 4 7 12 13 11 7 3 3 4 5 5 3 1 1 1 2 2 4 8 12 14 14 11 11 13 18 24 25 22 13 -1 -4 3 11 9 3 0 -0 0 1 2 2 1 3 6 6 3 -1 -2 -2 -1 -2 -3 -2 -2 -1
1 2 3 3 3 3 3 4 5 5 6 5 3 3 7 12 13 11 7 5 5 4 3 2 2 4 5 7 6 5 5 7 11 13 15 16 18 21 24 26 24 19 12 3 2 4 6 3 1 -0 -0 0 1 2 2 1 4 6 5 -0 -1 0 1 -1 -3 -3 -2 -1 0
1 2 3 4 4 4 4 4 4 5 5 4 3 4 8 15 19 16 10 5 5 5 5 4 5 7 8 8 8 9 10 12 15 17 19 20 23 25 26 23 22 19 15 8 5 3 1 -0 -0 -0 0 1 2 3 4 4 5 4 1 -2 0 -0 -2 -4 -4 -2 -1 1 2
2 3 3 5 5 5 5 5 5 5 5 4 3 4 9 18 26 24 16 7 6 5 5 5 6 6 6 7 9 13 17 19 20 20 21 23 27 26 24 21 21 19 14 7 3 0 -1 -1 -1 -0 0 1 2 5 7 8 5 2 -0 -0 -0 -2 -4 -5 -3 -1 0 1 2
4 3 3 4 5 6 6 7 6 6 6 5 3 3 8 18 28 27 19 7 2 -0 -0 1 2 4 6 8 12 17 22 25 21 19 19 21 20 18 16 18 20 16 10 3 0 -1 -1 -1 -0 0 1 1 4 7 9 8 4 1 -1 -0 -2 -3 -4 -4 -3 -1 1 2 2
6 6 6 6 6 6 7 7 6 7 7 6 4 4 6 11 15 12 3 -9 -12 -10 -6 -1 0 4 9 14 18 21 23 23 18 15 14 13 9 9 12 18 18 13 6 1 1 3 5 6 6 5 5 5 7 8 7 4 0 -3 -4 -5 -4 -3 -2 -2 -1 -0 1 2 3
11 10 9 9 9 8 8 7 6 6 7 8 7 6 5 4 1 -6 -14 -21 -17 -10 -1 4 7 12 17 23 25 22 18 17 14 12 11 9 11 15 19 22 15 8 2 1 4 7 11 13 14 13 12 11 10 9 6 2 -2 -5 -6 -6 -3 -1 -0 -0 0 1 2 3 4
14 14 12 11 11 10 9 8 7 6 7 8 9 8 7 4 -2 -8 -12 -12 -6 2 9 15 20 23 25 26 23 17 12 11 11 12 16 22 29 32 30 21 10 3 -1 -1 -1 -0 1 6 10 12 13 12 11 9 6 3 -0 -2 -3 -1 1 1 2 2 2 3 3 4 5
15 15 15 15 14 13 12 11 9 8 8 9 10 10 10 7 4 1 1 3 8 13 19 24 25 25 23 21 16 9 4 6 12 19 25 30 31 28 21 12 6 2 -1 -2 -6 -9 -10 -5 1 3 5 5 4 4 3 1 0 0 1 2 3 3 3 2 2 3 4 5 8
18 17 18 19 20 19 18 17 15 14 13 12 12 12 12 12 11 11 12 14 17 21 24 27 27 25 23 18 11 6 7 16 22 23 22 18 14 10 7 5 5 5 3 0 -4 -7 -8 -7 -5 -3 -3 -3 -2 -1 -1 -0 1 2 3 3 2 2 2 2 3 4 6 9 11
23 22 23 25 25 23 22 21 21 20 18 17 16 15 16 16 17 17 19 21 24 26 26 26 27 29 29 26 21 19 19 20 18 15 11 7 5 3 3 3 5 6 6 5 3 0 -2 -3 -4 -4 -4 -4 -4 -3 -1 0 1 2 2 2 1 1 2 3 5 8 10 12 13
25 27 25 21 16 16 18 21 22 22 22 21 21 21 21 21 22 23 24 26 26 24 21 19 21 25 27 28 25 22 17 13 8 6 5 5 5 6 7 8 8 8 7 7 6 5 3 1 -0 -1 -2 -3 -2 -2 -1 0 1 1 1 2 2 3 5 7 9 11 13 13 13
23 24 21 15 11 11 15 20 22 23 24 24 25 25 24 24 25 25 25 23 19 15 12 10 12 14 16 17 15 13 9 5 2 2 3 4 5 6 8 9 9 7 6 5 5 5 4 2 1 -0 -1 -2 -1 -1 -0 1 2 2 3 4 5 7 8 10 11 12 12 12 11
23 22 20 18 17 17 17 19 22 23 24 24 23 22 21 22 21 19 17 14 11 8 7 6 6 6 6 7 6 5 3 1 0 1 1 2 2 2 2 3 3 3 3 3 3 3 2 1 -0 -1 -1 -1 -1 0 1 3 4 5 6 7 8 10 11 12 12 11 11 10 10
20 21 22 19 18 17 17 18 19 19 18 17 16 15 14 14 12 10 9 7 7 7 6 4 4 4 5 5 4 3 2 2 2 2 3 3 2 1 1 -0 0 1 1 2 2 1 1 -0 -1 -1 -1 0 1 3 4 5 7 8 9 10 11 11 11 11 11 10 10 10 9
7 7 7 7 8 9 10 11 11 10 9 8 6 5 5 5 5 6 6 7 7 6 4 3 4 5 6 6 5 5 5 5 5 6 6 6 6 5 4 3 2 2 2 2 1 1 0 0 1 1 3 4 6 7 8 9 10 10 11 11 11 11 10 10 10 9 9 9 9
3 -0 -3 -5 -5 -4 -2 0 1 2 2 1 1 2 2 3 5 6 7 7 5 3 2 3 4 5 5 5 5 5 5 6 6 7 7 7 7 7 7 6 6 5 5 4 4 4 4 4 5 6 7 8 9 10 10 11 11 11 11 10 10 9 9 9 9 9 9 9 8
3 3 4 4 5 6 6 6 6 5 5 5 6 7 8 9 8 8 7 6 5 3 3 4 4 4 4 4 5 5 5 5 5 5 5 6 6 6 6 6 6 6 6 6 7 7 8 8 9 9 10 10 10 10 10 10 10 9 9 9 8 8 8 8 8 8 8 8 8
3 3 4 5 7 8 8 8 8 8 8 9 9 9 9 9 8 7 7 6 5 5 5 5 6 6 6 5 5 5 5 4 4 4 5 5 4 3 3 3 3 4 5 6 7 8 9 9 10 10 10 9 9 9 9 8 8 8 7 7 7 7 7 7 7 7 7 8 9
4 4 4 5 6 6 6 6 5 5 5 6 7 7 7 6 6 5 5 5 6 6 7 7 8 7 7 7 6 5 5 5 5 6 6 6 5 4 4 3 3 4 5 6 7 8 8 9 9 9 8 8 8 8 7 7 7 7 7 7 7 7 8 8 8 9 9 10 11
5 6 6 6 7 6 6 6 5 5 5 6 6 6 6 6 5 5 5 5 6 7 8 8 8 8 8 8 7 7 6 6 7 7 7 8 8 7 7 7 7 7 7 8 8 8 8 8 8 8 8 7 7 7 8 8 8 9 9 10 10 11 12 12 13 13 13 14 15
6 6 7 7 7 7 8 8 8 8 8 8 8 8 7 8 7 7 6 6 7 8 8 8 8 8 8 8 8 7 7 7 7 8 8 8 9 9 9 8 8 8 8 8 8 8 8 8 8 9 9 9 10 10 11 12 13 14 15 16 17 18 18 18 18 18 18 17 17
6 6 6 7 7 8 9 9 10 11 11 12 12 11 10 10 9 9 8 8 9 9 9 8 8 8 8 8 7 7 7 8 8 8 8 9 9 8 8 8 8 8 9 9 9 10 10 11 11 12 13 14 15 16 17 19 20 21 23 24 24 24 23 22 21 20 19 18 18
7 7 7 7 8 8 9 10 11 12 13 14 13 13 12 11 10 9 9 9 9 9 8 8 8 8 8 7 7 7 8 8 8 8 8 8 8 8 8 8 9 9 10 11 11 12 13 14 15 17 18 19 20 21 22 23 24 26 26 27 26 24 23 22 20 19 18 17 16
9 9 8 9 9 9 10 11 12 13 13 12 12 11 11 10 9 8 8 8 9 8 7 7 7 7 7 7 7 8 8 8 8 8 8 8 8 9 9 9 10 11 12 13 13 14 15 16 17 19 20 21 21 22 22 23 24 24 24 23 21 20 19 18 17 15 15 14 13
11 10 10 10 10 10 10 11 12 12 11 10 9 9 9 8 7 6 6 7 8 8 7 7 7 7 7 7 8 8 7 8 8 8 8 8 9 9 10 11 11 11 12 13 13 14 15 15 17 17 18 19 19 19 19 19 19 18 17 17 15 15 14 13 13 12 12 12 11
11 11 11 11 11 11 10 11 11 11 10 9 9 8 7 5 5 5 6 6 7 7 7 7 6 7 7 8 8 7 7 7 8 8 9 9 9 10 11 11 11 11 11 12 12 12 13 13 14 14 15 15 15 14 14 14 13 13 12 11 11 11 10 11 11 11 11 11 10
Height
3079 3080 3081 3082 3083 3084 3085 3087 3088 3089 3091 3092 3093 3094 3096 3097 3098 3099 3101 3103 3104 3106 3107 3108 3110 3111 3111 3111 3112 3113 3114 3116 3118 3118 3119 3119 3120 3120 3120 3120 3119 3119 3121 3123 3124 3125 3127 3128 3129 3130 3131 3132 3133 3133 3134 3134 3134 3135 3135 3135 3135 3135 3135 3135 3135 3135 3135 3135 3135
3076 3077 3079 3079 3080 3081 3083 3084 3085 3087 3088 3089 3091 3092 3094 3095 3097 3098 3100 3101 3103 3104 3105 3106 3108 3109 3110 3110 3110 3111 3112 3113 3115 3116 3117 3118 3118 3118 3118 3118 3117 3118 3119 3120 3122 3123 3125 3126 3128 3129 3129 3130 3131 3132 3132 3133 3133 3133 3133 3133 3133 3133 3134 3134 3134 3134 3134 3134 3134
3074 3075 3077 3078 3079 3079 3079 3079 3080 3082 3084 3086 3088 3090 3091 3093 3094 3096 3098 3099 3100 3102 3103 3104 3106 3108 3109 3109 3109 3109 3110 3111 3113 3114 3115 3116 3116 3116 3116 3116 3115 3115 3115 3117 3119 3121 3123 3124 3126 3127 3128 3129 3130 3130 3131 3131 3131 3131 3131 3132 3132 3132 3132 3132 3132 3133 3133 3133 3133
3072 3073 3075 3076 3077 3078 3077 3076 3076 3077 3080 3083 3085 3088 3089 3091 3092 3094 3095 3096 3098 3099 3101 3102 3104 3105 3106 3107 3107 3107 3108 3109 3110 3112 3113 3114 3115 3115 3115 3114 3113 3112 3112 3114 3116 3119 3121 3122 3124 3125 3126 3127 3128 3129 3129 3129 3129 3129 3130 3130 3130 3130 3130 3131 3131 3131 3132 3132 3132
3070 3071 3073 3074 3075 3076 3076 3074 3073 3074 3076 3080 3083 3086 3088 3090 3091 3092 3093 3094 3095 3096 3098 3099 3100 3102 3103 3104 3104 3105 3105 3106 3108 3109 3111 3113 3114 3114 3114 3112 3111 3110 3110 3111 3113 3116 3118 3120 3122 3123 3124 3126 3127 3127 3128 3128 3128 3128 3128 3128 3129 3129 3129 3129 3130 3130 3130 3131 3131
3067 3068 3070 3071 3073 3074 3074 3073 3072 3072 3074 3078 3081 3084 3086 3088 3089 3089 3090 3091 3093 3094 3095 3096 3097 3098 3099 3101 3101 3102 3103 3104 3106 3108 3110 3111 3112 3112 3112 3111 3110 3109 3109 3109 3111 3114 3116 3118 3119 3121 3123 3124 3125 3125 3126 3126 3126 3126 3127 3127 3127 3128 3128 3128 3129 3129 3129 3129 3130
3065 3066 3067 3068 3069 3070 3071 3071 3071 3072 3073 3076 3079 3081 3084 3085 3087 3087 3088 3089 3091 3092 3093 3094 3095 3095 3097 3098 3099 3100 3102 3104 3105 3108 3109 3109 3110 3110 3110 3110 3109 3108 3107 3107 3109 3112 3114 3116 3118 3119 3121 3122 3123 3123 3124 3124 3124 3124 3125 3125 3126 3126 3126 3127 3127 3127 3128 3128 3128
3065 3065 3065 3066 3067 3068 3069 3069 3070 3071 3073 3075 3078 3081 3083 3084 3085 3085 3086 3087 3089 3089 3090 3091 3092 3093 3094 3095 3097 3099 3101 3103 3104 3107 3108 3107 3108 3108 3108 3108 3107 3105 3105 3107 3109 3111 3113 3115 3117 3118 3119 3120 3121 3121 3122 3122 3123 3123 3123 3124 3124 3124 3124 3125 3125 3126 3126 3126 3126
3064 3064 3065 3066 3067 3068 3068 3068 3069 3071 3073 3075 3078 3081 3082 3082 3083 3083 3084 3085 3087 3088 3089 3090 3091 3092 3093 3094 3096 3098 3100 3102 3104 3105 3105 3105 3105 3106 3106 3106 3105 3104 3104 3106 3108 3110 3112 3114 3115 3117 3117 3118 3119 3119 3120 3120 3121 3121 3122 3122 3122 3123 3123 3123 3124 3124 3124 3124 3124
3063 3063 3064 3065 3067 3068 3068 3069 3070 3072 3074 3076 3078 3079 3080 3080 3080 3081 3083 3084 3085 3086 3088 3089 3090 3091 3093 3094 3095 3097 3099 3100 3102 3102 3103 3103 3104 3104 3104 3104 3103 3102 3103 3105 3108 3109 3111 3113 3114 3115 3116 3117 3117 3118 3118 3119 3119 3119 3120 3120 3120 3121 3121 3122 3122 3122 3123 3123 3123
3062 3063 3063 3064 3065 3066 3067 3069 3070 3072 3074 3076 3077 3078 3078 3078 3079 3080 3082 3083 3084 3085 3087 3089 3089 3091 3092 3093 3094 3095 3096 3097 3098 3099 3100 3101 3102 3103 3102 3102 3101 3101 3102 3104 3106 3109 3110 3111 3112 3113 3114 3115 3115 3116 3116 3117 3117 3118 3118 3119 3119 3119 3119 3120 3120 3121 3121 3121 3121
3061 3062 3062 3063 3064 3065 3067 3068 3069 3071 3073 3074 3075 3076 3077 3077 3079 3080 3081 3083 3084 3085 3086 3088 3089 3090 3091 3092 3093 3093 3094 3094 3095 3097 3098 3099 3099 3100 3100 3099 3100 3100 3102 3103 3105 3107 3108 3109 3110 3111 3112 3113 3114 3114 3115 3115 3116 3116 3116 3117 3117 3117 3118 3118 3119 3119 3119 3119 3119
3060 3061 3062 3063 3064 3066 3067 3068 3069 3070 3072 3073 3074 3075 3076 3077 3078 3079 3081 3082 3083 3084 3086 3087 3088 3089 3089 3090 3091 3092 3092 3093 3094 3095 3095 3096 3096 3097 3097 3098 3099 3100 3101 3103 3104 3105 3106 3107 3108 3109 3110 3111 3112 3113 3113 3114 3114 3114 3115 3115 3115 3116 3116 3116 3117 3117 3117 3117 3117
3059 3060 3062 3063 3064 3065 3067 3068 3069 3070 3071 3072 3073 3074 3076 3077 3078 3079 3080 3081 3083 3084 3085 3086 3087 3087 3088 3089 3090 3091 3092 3093 3094 3094 3094 3094 3095 3095 3096 3097 3098 3099 3100 3101 3103 3103 3104 3105 3106 3107 3108 3109 3110 3111 3111 3112 3112 3113 3113 3114 3114 3114 3114 3114 3115 3115 3115 3115 3115
3059 3060 3061 3063 3064 3065 3066 3067 3068 3069 3071 3072 3073 3074 3075 3076 3078 3079 3079 3081 3082 3083 3084 3085 3086 3086 3087 3088 3088 3089 3090 3091 3092 3092 3093 3093 3093 3094 3094 3095 3096 3097 3098 3100 3101 3101 3102 3103 3104 3106 3107 3108 3108 3109 3109 3110 3110 3110 3111 3111 3112 3112 3112 3113 3113 3113 3113 3113 3113
3058 3059 3061 3062 3063 3064 3065 3067 3068 3069 3071 3072 3073 3074 3075 3076 3077 3078 3079 3080 3081 3082 3083 3084 3085 3085 3086 3086 3087 3087 3088 3089 3089 3089 3090 3090 3091 3091 3092 3093 3094 3095 3096 3098 3099 3099 3100 3102 3103 3104 3105 3106 3107 3107 3108 3108 3108 3109 3109 3109 3110 3110 3110 3110 3111 3111 3111 3111 3111
3058 3059 3060 3061 3063 3064 3065 3066 3068 3069 3070 3071 3073 3074 3074 3075 3076 3077 3078 3079 3079 3081 3082 3083 3083 3084 3084 3085 3085 3086 3086 3087 3087 3087 3088 3088 3089 3090 3091 3093 3093 3094 3094 3095 3097 3098 3099 3101 3102 3103 3104 3104 3105 3105 3106 3106 3106 3107 3107 3108 3108 3108 3108 3109 3109 3109 3109 3109 3108
3058 3059 3059 3060 3062 3063 3064 3066 3067 3068 3069 3070 3072 3072 3073 3074 3074 3075 3076 3077 3078 3079 3080 3081 3082 3082 3083 3083 3084 3084 3084 3085 3085 3085 3086 3087 3088 3089 3091 3092 3091 3092 3093 3094 3096 3097 3099 3099 3100 3101 3102 3103 3103 3103 3104 3104 3104 3104 3105 3105 3106 3106 3106 3106 3106 3106 3106 3106 3106
3058 3059 3059 3060 3061 3062 3064 3065 3066 3067 3068 3069 3070 3071 3072 3073 3074 3074 3075 3076 3077 3078 3079 3079 3080 3080 3081 3081 3082 3082 3083 3083 3084 3085 3086 3087 3088 3089 3089 3089 3089 3090 3092 3094 3095 3096 3097 3098 3099 3100 3100 3101 3101 3101 3102 3102 3102 3103 3103 3103 3104 3104 3104 3104 3104 3104 3104 3104 3103
3057 3058 3059 3059 3060 3061 3063 3064 3065 3066 3067 3068 3069 3070 3071 3072 3073 3074 3074 3075 3076 3077 3078 3078 3079 3079 3079 3080 3080 3081 3082 3082 3084 3084 3085 3085 3086 3086 3086 3086 3087 3089 3091 3093 3094 3095 3096 3097 3098 3098 3099 3099 3099 3099 3099 3100 3100 3101 3101 3101 3102 3102 3102 3102 3102 3101 3101 3101 3101
3055 3056 3057 3058 3059 3060 3061 3062 3064 3065 3066 3067 3068 3069 3070 3071 3072 3073 3073 3074 3074 3075 3076 3076 3077 3077 3078 3079 3080 3081 3081 3082 3082 3083 3083 3083 3083 3083 3084 3085 3087 3089 3091 3092 3093 3094 3095 3095 3096 3096 3096 3097 3097 3097 3098 3098 3099 3099 3099 3100 3100 3100 3099 3099 3099 3099 3099 3098 3098
3054 3054 3055 3057 3058 3059 3060 3061 3062 3063 3064 3065 3067 3068 3069 3070 3071 3071 3072 3072 3073 3074 3074 3075 3075 3076 3077 3078 3079 3079 3080 3080 3080 3080 3080 3081 3082 3082 3084 3085 3087 3089 3090 3091 3092 3092 3092 3092 3093 3094 3094 3094 3095 3095 3096 3097 3097 3098 3098 3098 3098 3097 3097 3097 3097 3096 3096 3095 3095
3052 3053 3054 3055 3056 3058 3059 3059 3061 3062 3063 3064 3065 3066 3067 3068 3069 3070 3070 3071 3072 3073 3074 3074 3074 3075 3076 3076 3077 3078 3078 3078 3078 3079 3079 3081 3082 3083 3084 3086 3087 3089 3089 3090 3090 3090 3090 3090 3091 3092 3092 3093 3093 3094 3094 3095 3095 3095 3095 3095 3095 3095 3094 3094 3094 3094 3093 3093 3092
3051 3052 3053 3054 3054 3055 3057 3058 3059 3060 3061 3062 3064 3065 3066 3067 3068 3068 3069 3070 3071 3072 3073 3073 3074 3074 3075 3075 3075 3076 3076 3077 3078 3079 3079 3081 3082 3083 3084 3085 3086 3087 3088 3088 3088 3089 3089 3089 3089 3090 3090 3091 3092 3092 3092 3093 3093 3093 3093 3092 3092 3092 3092 3091 3091 3090 3090 3090 3089
3049 3050 3051 3052 3053 3054 3055 3056 3058 3059 3060 3061 3062 3063 3064 3065 3066 3067 3068 3068 3069 3070 3071 3072 3072 3073 3074 3074 3075 3075 3076 3077 3078 3079 3079 3081 3081 3082 3083 3084 3085 3086 3086 3087 3087 3087 3087 3088 3088 3088 3089 3089 3089 3090 3090 3090 3090 3090 3090 3089 3089 3089 3089 3088 3088 3088 3087 3087 3087
3049 3049 3050 3051 3052 3053 3054 3055 3056 3057 3059 3059 3060 3061 3063 3064 3064 3065 3066 3067 3068 3069 3070 3070 3071 3071 3072 3073 3074 3075 3076 3077 3078 3078 3079 3080 3081 3081 3081 3082 3083 3084 3084 3085 3085 3086 3086 3086 3086 3087 3087 3087 3087 3088 3088 3088 3088 3087 3087 3087 3087 3086 3086 3085 3085 3085 3084 3084 3084
3048 3049 3050 3051 3052 3052 3053 3054 3055 3056 3057 3058 3059 3060 3061 3062 3063 3064 3065 3066 3067 3068 3069 3069 3070 3071 3071 3072 3073 3074 3074 3075 3076 3077 3078 3078 3079 3079 3080 3081 3081 3082 3083 3083 3084 3084 3084 3085 3085 3085 3085 3085 3085 3085 3085 3085 3085 3085 3085 3084 3084 3084 3083 3083 3082 3082 3082 3081 3081
3048 3049 3050 3051 3051 3052 3053 3054 3055 3056 3057 3058 3059 3059 3060 3061 3062 3063 3064 3065 3066 3067 3068 3069 3069 3070 3071 3071 3072 3073 3074 3074 3075 3076 3076 3077 3078 3078 3079 3079 3080 3080 3081 3081 3082 3082 3083 3083 3083 3083 3083 3083 3083 3083 3083 3083 3083 3082 3082 3082 3081 3081 3080 3080 3079 3079 3079 3078 3078
3048 3049 3050 3050 3050 3051 3052 3054 3054 3055 3056 3057 3058 3059 3059 3060 3062 3063 3064 3065 3066 3067 3067 3068 3069 3069 3070 3071 3071 3072 3073 3073 3074 3074 3075 3076 3076 3077 3077 3078 3079 3079 3079 3079 3080 3080 3080 3080 3080 3080 3080 3080 3080 3080 3080 3080 3080 3079 3079 3079 3078 3078 3077 3077 3077 3076 3076 3075 3075
3047 3048 3049 3049 3050 3051 3052 3053 3054 3054 3055 3056 3057 3058 3059 3060 3061 3062 3063 3064 3065 3066 3066 3067 3068 3069 3069 3070 3070 3071 3071 3072 3073 3073 3074 3074 3075 3075 3076 3076 3077 3077 3077 3078 3078 3078 3078 3078 3078 3078 3078 3077 3077 3077 3077 3077 3077 3076 3076 3076 3075 3075 3074 3074 3074 3074 3073 3073 3073
3048 3049 3049 3049 3050 3050 3051 3052 3053 3054 3055 3056 3057 3058 3059 3059 3060 3061 3062 3063 3064 3064 3065 3066 3066 3067 3068 3068 3069 3069 3070 3070 3071 3072 3072 3073 3073 3074 3074 3075 3075 3075 3075 3075 3075 3075 3075 3075 3075 3075 3075 3075 3074 3074 3074 3074 3074 3073 3073 3073 3072 3072 3072 3071 3071 3071 3070 3070 3070
3048 3049 3049 3049 3050 3050 3051 3052 3053 3054 3054 3055 3056 3057 3058 3058 3059 3060 3061 3062 3062 3063 3064 3064 3065 3065 3066 3066 3067 3068 3068 3069 3069 3070 3070 3071 3071 3072 3072 3072 3073 3073 3073 3073 3073 3073 3073 3073 3072 3072 3072 3072 3072 3071 3071 3071 3071 3070 3070 3070 3069 3069 3069 3069 3068 3068 3068 3067 3067
3047 3047 3048 3048 3049 3049 3050 3050 3051 3052 3053 3054 3054 3055 3056 3057 3058 3058 3059 3060 3060 3061 3062 3062 3063 3063 3064 3064 3065 3066 3066 3067 3067 3068 3068 3069 3069 3069 3069 3069 3069 3069 3070 3070 3070 3070 3070 3070 3069 3069 3069 3069 3069 3068 3068 3068 3068 3067 3067 3067 3066 3066 3066 3066 3065 3065 3065 3064 3064
3045 3046 3047 3047 3048 3048 3049 3049 3050 3050 3051 3052 3053 3054 3054 3055 3056 3056 3057 3058 3059 3059 3059 3060 3061 3061 3062 3063 3063 3064 3064 3065 3065 3065 3066 3066 3066 3066 3066 3066 3066 3067 3067 3067 3067 3067 3067 3067 3067 3066 3066 3066 3066 3065 3065 3065 3064 3064 3064 3064 3064 3063 3063 3063 3063 3062 3062 3062 3061
3044 3045 3045 3046 3046 3047 3047 3048 3048 3049 3049 3050 3051 3052 3052 3053 3054 3054 3055 3056 3057 3057 3058 3058 3059 3059 3060 3061 3061 3062 3062 3063 3063 3063 3064 3064 3064 3064 3064 3064 3064 3064 3064 3064 3064 3064 3064 3064 3064 3064 3063 3063 3063 3062 3062 3062 3062 3061 3061 3061 3060 3060 3060 3060 3059 3059 3059 3059 3059
3043 3043 3044 3044 3044 3045 3046 3046 3047 3047 3048 3049 3049 3050 3050 3051 3052 3053 3053 3054 3054 3055 3056 3056 3057 3058 3058 3059 3059 3060 3060 3060 3061 3061 3061 3061 3062 3062 3062 3062 3062 3062 3062 3062 3062 3061 3061 3061 3061 3061 3060 3060 3060 3059 3059 3059 3059 3058 3058 3058 3058 3057 3057 3057 3057 3056 3056 3056 3056
3041 3041 3042 3043 3043 3044 3044 3044 3045 3046 3046 3047 3047 3048 3049 3049 3050 3050 3051 3052 3053 3053 3054 3054 3055 3056 3056 3057 3057 3058 3058 3058 3059 3059 3059 3059 3059 3059 3059 3059 3059 3059 3059 3059 3059 3059 3059 3059 3058 3058 3058 3057 3057 3057 3056 3056 3055 3055 3055 3055 3054 3054 3054 3054 3054 3054 3054 3054 3053
3039 3039 3040 3040 3041 3042 3042 3043 3043 3044 3044 3045 3046 3046 3047 3048 3048 3049 3049 3050 3051 3051 3052 3053 3053 3054 3054 3054 3055 3055 3056 3056 3056 3057 3057 3057 3057 3057 3057 3057 3057 3057 3057 3057 3057 3056 3056 3056 3056 3055 3055 3055 3054 3054 3053 3053 3053 3052 3052 3052 3052 3052 3052 3051 3051 3051 3051 3051 3050
3037 3037 3038 3039 3039 3040 3040 3041 3042 3042 3043 3044 3044 3045 3045 3046 3046 3047 3048 3049 3049 3049 3050 3051 3051 3051 3052 3053 3053 3053 3054 3054 3054 3054 3055 3055 3055 3055 3055 3055 3055 3055 3055 3055 3054 3054 3054 3054 3053 3053 3052 3052 3051 3051 3050 3050 3050 3050 3049 3049 3049 3049 3049 3049 3049 3049 3049 3049 3048
3035 3036 3036 3037 3038 3038 3039 3039 3040 3041 3041 3042 3043 3043 3044 3044 3045 3045 3046 3047 3047 3048 3048 3049 3049 3049 3050 3050 3051 3051 3052 3052 3052 3053 3053 3053 3053 3053 3053 3053 3053 3053 3053 3052 3052 3052 3051 3051 3051 3050 3050 3049 3049 3049 3048 3048 3048 3047 3047 3047 3047 3047 3047 3047 3047 3047 3046 3046 3045
3034 3034 3035 3035 3036 3037 3037 3038 3039 3039 3040 3041 3041 3042 3042 3043 3044 3044 3044 3045 3045 3046 3046 3047 3047 3048 3048 3049 3049 3049 3050 3050 3050 3050 3051 3051 3051 3051 3051 3051 3050 3050 3050 3050 3050 3049 3049 3049 3049 3048 3048 3047 3047 3046 3046 3046 3045 3045 3045 3045 3045 3045 3044 3044 3044 3044 3044 3044 3043